Location: Bakov nad Jizerou
(50.4784°N, 14.9394°E)
Time: 08:08:53
(UTC+00:00)

SL-16 R/B - Visible Passes

Search period start: 28 October 2021 00:00
Search period end: 07 November 2021 00:00
Orbit: 840 x 850 km, 71.0° (Epoch: 27 October)

Date Brightness Start Highest point End Pass type
(mag) Time Alt. Az. Time Alt. Az. Time Alt. Az.
28 Oct 4.8 02:19:57 10° N 02:22:25 13° NNE 02:24:51 10° NE visible
28 Oct 3.7 04:03:07 10° NNW 04:08:21 35° NE 04:13:34 10° ESE visible
29 Oct 4.8 02:05:51 10° N 02:08:14 12° NNE 02:10:37 10° NE visible
29 Oct 3.7 03:49:01 10° NNW 03:54:13 35° NE 03:59:24 10° ESE visible
30 Oct 4.8 01:51:46 10° N 01:54:04 12° NNE 01:56:22 10° NE visible
30 Oct 3.7 03:34:54 10° NNW 03:40:05 34° NE 03:45:13 10° ESE visible
31 Oct 4.9 01:37:59 11° N 01:39:54 12° NNE 01:42:07 10° NE visible
31 Oct 3.8 03:20:47 10° NNW 03:25:56 33° NE 03:31:03 10° ESE visible
31 Oct 2.4 05:04:48 10° NW 05:10:23 57° WSW 05:15:55 10° S visible
01 Nov 4.9 01:24:33 11° N 01:25:44 12° NNE 01:27:52 10° NE visible
01 Nov 3.8 03:06:40 10° NNW 03:11:48 32° NE 03:16:53 10° ESE visible
01 Nov 2.3 04:50:40 10° NW 04:56:16 58° WSW 05:01:50 10° S visible
02 Nov 4.9 01:11:13 12° NNE 01:11:34 12° NNE 01:13:37 10° NE visible
02 Nov 3.8 02:53:07 12° NNW 02:57:39 32° NE 03:02:42 10° ESE visible
02 Nov 2.3 04:36:32 10° NW 04:42:09 60° WSW 04:47:44 10° SSE visible
03 Nov 5.0 00:57:59 11° NNE 00:57:59 11° NNE 00:59:22 10° NE visible
03 Nov 3.8 02:39:54 17° N 02:43:31 31° NE 02:48:31 10° ESE visible
03 Nov 2.2 04:22:24 10° NW 04:28:02 62° WSW 04:33:38 10° SSE visible
04 Nov 5.1 00:44:53 10° NE 00:44:53 10° NE 00:45:06 10° NE visible
04 Nov 3.8 02:26:48 22° N 02:29:22 30° NE 02:34:21 10° ESE visible
04 Nov 2.2 04:08:44 12° NW 04:13:55 64° WSW 04:19:31 10° SSE visible
04 Nov 4.1 17:22:43 10° SSE 17:23:21 12° SE 17:23:21 12° SE visible
04 Nov 4.5 19:04:35 10° SSW 19:05:19 14° SW 19:05:19 14° SW visible
05 Nov 3.9 02:13:51 27° NNE 02:15:13 30° NE 02:20:10 10° ESE visible
05 Nov 2.1 03:55:48 20° NW 03:59:48 66° WSW 04:05:26 10° SSE visible
05 Nov 3.7 17:08:43 10° SE 17:10:54 17° SE 17:10:54 17° SE visible
05 Nov 3.7 18:50:28 10° SSW 18:52:51 26° SW 18:52:51 26° SW visible
06 Nov 3.9 02:01:03 29° NE 02:01:04 29° NE 02:05:59 10° ESE visible
06 Nov 2.1 03:43:00 32° NW 03:45:42 68° WSW 03:51:20 10° SSE visible
06 Nov 3.5 16:54:42 10° SE 16:58:19 19° ESE 16:58:19 19° ESE visible
06 Nov 2.9 18:36:20 10° SSW 18:40:16 46° SW 18:40:16 46° SW visible
